GARYV EGNX-EGNX

Flight info

Callsign GARYV
Flight time 0h 19m
Altitude 3000
Route VFR
Aircraft PA24/L-VGD/C

Departure

Time 2026-05-08 00:31
Airport East Midlands Airport (EGNX)

Arrival

Time 2026-05-08 00:50
Airport East Midlands Airport (EGNX)
Time Latitude Longitude Altitude Speed Heading
2026-05-08 00:04 52.82829 -1.33916 295 ft 0 kts
2026-05-08 00:26 52.82844 -1.33906 296 ft 7 kts 47°
2026-05-08 00:26 52.82848 -1.33788 295 ft 11 kts 89°
2026-05-08 00:26 52.82849 -1.33758 295 ft 0 kts 90°
2026-05-08 00:26 52.82851 -1.33729 295 ft 6 kts 63°
2026-05-08 00:27 52.82907 -1.33723 298 ft 8 kts 357°
2026-05-08 00:27 52.82961 -1.33718 300 ft 8 kts
2026-05-08 00:27 52.82963 -1.33745 302 ft 0 kts 147°
2026-05-08 00:29 52.82970 -1.33723 300 ft 3 kts
2026-05-08 00:29 52.82984 -1.33724 300 ft 7 kts 357°
2026-05-08 00:30 52.83059 -1.33729 301 ft 12 kts 16°
2026-05-08 00:30 52.83088 -1.33543 303 ft 35 kts 87°
2026-05-08 00:30 52.83119 -1.32807 407 ft 76 kts 86°
2026-05-08 00:30 52.83178 -1.31858 724 ft 86 kts 92°
2026-05-08 00:31 52.83193 -1.30858 1099 ft 89 kts 91°
2026-05-08 00:31 52.83232 -1.29767 1368 ft 99 kts 89°
2026-05-08 00:31 52.83488 -1.28711 1637 ft 105 kts 56°
2026-05-08 00:31 52.83975 -1.27780 1913 ft 111 kts 52°
2026-05-08 00:32 52.84497 -1.26779 2047 ft 118 kts 51°
2026-05-08 00:32 52.85067 -1.25722 2077 ft 127 kts 51°
2026-05-08 00:32 52.85703 -1.24663 2105 ft 131 kts 42°
2026-05-08 00:32 52.86404 -1.23712 2183 ft 133 kts 40°
2026-05-08 00:33 52.87131 -1.22726 2184 ft 139 kts 40°
2026-05-08 00:33 52.87870 -1.21676 2173 ft 142 kts 43°
2026-05-08 00:33 52.88600 -1.20568 2193 ft 143 kts 45°
2026-05-08 00:33 52.89328 -1.19431 2169 ft 145 kts 45°
2026-05-08 00:34 52.90049 -1.18278 2120 ft 147 kts 46°
2026-05-08 00:34 52.90791 -1.16970 1790 ft 163 kts 49°
2026-05-08 00:34 52.91560 -1.15709 1843 ft 151 kts 39°
2026-05-08 00:34 52.92551 -1.15055 1696 ft 153 kts
2026-05-08 00:35 52.93554 -1.15218 1834 ft 140 kts 344°
2026-05-08 00:35 52.94450 -1.15771 1861 ft 136 kts 325°
2026-05-08 00:35 52.94943 -1.16417 1829 ft 137 kts 323°
2026-05-08 00:35 52.95856 -1.16778 1861 ft 136 kts
2026-05-08 00:36 52.96487 -1.15882 1966 ft 126 kts 86°
2026-05-08 00:36 52.96103 -1.14731 1995 ft 118 kts 160°
2026-05-08 00:36 52.95316 -1.14297 1894 ft 124 kts 160°
2026-05-08 00:36 52.94512 -1.14277 1957 ft 118 kts 202°
2026-05-08 00:37 52.93909 -1.13804 2131 ft 107 kts 104°
2026-05-08 00:37 52.94323 -1.12783 2142 ft 119 kts 14°
2026-05-08 00:37 52.95169 -1.12776 2163 ft 125 kts 350°
2026-05-08 00:38 52.96186 -1.14671 2280 ft 119 kts 263°
2026-05-08 00:38 52.95891 -1.15901 2306 ft 117 kts 220°
2026-05-08 00:38 52.95133 -1.16193 2326 ft 115 kts 175°
2026-05-08 00:38 52.94351 -1.16311 2381 ft 113 kts 195°
2026-05-08 00:39 52.93589 -1.16617 2424 ft 112 kts 194°
2026-05-08 00:39 52.92823 -1.16897 2448 ft 112 kts 194°
2026-05-08 00:39 52.92084 -1.17296 2476 ft 114 kts 209°
2026-05-08 00:39 52.91482 -1.18109 2521 ft 112 kts 228°
2026-05-08 00:40 52.91069 -1.19205 2532 ft 114 kts 243°
2026-05-08 00:40 52.90839 -1.20461 2581 ft 114 kts 255°
2026-05-08 00:40 52.90715 -1.21778 2591 ft 117 kts 258°
2026-05-08 00:40 52.90612 -1.23112 2611 ft 118 kts 259°
2026-05-08 00:41 52.90545 -1.24462 2642 ft 118 kts 262°
2026-05-08 00:41 52.90528 -1.25826 2669 ft 118 kts 265°
2026-05-08 00:41 52.90557 -1.27177 2718 ft 118 kts 268°
2026-05-08 00:41 52.90602 -1.28556 2687 ft 122 kts 268°
2026-05-08 00:42 52.90645 -1.29966 2677 ft 123 kts 268°
2026-05-08 00:42 52.90676 -1.31374 2689 ft 122 kts 267°
2026-05-08 00:42 52.90705 -1.32789 2695 ft 123 kts 267°
2026-05-08 00:42 52.90734 -1.34214 2696 ft 124 kts 267°
2026-05-08 00:43 52.90761 -1.35619 2700 ft 124 kts 264°
2026-05-08 00:43 52.90704 -1.37057 2686 ft 124 kts 259°
2026-05-08 00:43 52.90576 -1.38462 2704 ft 123 kts 255°
2026-05-08 00:43 52.90398 -1.39863 2684 ft 123 kts 253°
2026-05-08 00:44 52.90202 -1.41221 2630 ft 120 kts 251°
2026-05-08 00:44 52.89997 -1.42533 2572 ft 116 kts 251°
2026-05-08 00:44 52.89773 -1.43794 2536 ft 112 kts 240°
2026-05-08 00:44 52.89282 -1.44715 2497 ft 108 kts 212°
2026-05-08 00:45 52.88606 -1.45267 2428 ft 108 kts 206°
2026-05-08 00:45 52.87920 -1.45788 2350 ft 109 kts 204°
2026-05-08 00:45 52.87203 -1.46281 2218 ft 113 kts 202°
2026-05-08 00:45 52.86454 -1.46722 2072 ft 116 kts 198°
2026-05-08 00:46 52.85681 -1.47080 1992 ft 114 kts 193°
2026-05-08 00:46 52.84882 -1.47272 1863 ft 117 kts 187°
2026-05-08 00:46 52.84071 -1.47218 1807 ft 114 kts 174°
2026-05-08 00:46 52.83369 -1.46663 1712 ft 115 kts 143°
2026-05-08 00:47 52.83031 -1.45453 1564 ft 123 kts 106°
2026-05-08 00:47 52.82870 -1.44088 1457 ft 118 kts 102°
2026-05-08 00:47 52.82915 -1.42793 1309 ft 108 kts 89°
2026-05-08 00:47 52.82940 -1.41591 1199 ft 102 kts 93°
2026-05-08 00:48 52.82958 -1.40435 1047 ft 98 kts 93°
2026-05-08 00:48 52.82979 -1.39363 941 ft 88 kts 93°
2026-05-08 00:48 52.82995 -1.38411 809 ft 79 kts 95°
2026-05-08 00:48 52.83007 -1.37538 697 ft 78 kts 92°
2026-05-08 00:49 52.83029 -1.36635 590 ft 80 kts 93°
2026-05-08 00:49 52.83049 -1.35733 478 ft 75 kts 92°
2026-05-08 00:49 52.83062 -1.34869 373 ft 75 kts 92°
2026-05-08 00:49 52.83078 -1.34064 301 ft 56 kts 94°
2026-05-08 00:50 52.83085 -1.33579 303 ft 31 kts 88°
2026-05-08 00:50 52.83089 -1.33292 301 ft 19 kts 88°
2026-05-08 00:50 52.83091 -1.33095 300 ft 15 kts 108°
2026-05-08 00:50 52.83100 -1.33075 301 ft 10 kts 270°
2026-05-08 00:51 52.83091 -1.33321 305 ft 32 kts 266°
2026-05-08 00:51 52.83083 -1.33643 303 ft 13 kts 269°
2026-05-08 00:51 52.83039 -1.33732 301 ft 12 kts 179°
2026-05-08 00:51 52.82958 -1.33726 300 ft 11 kts 177°
2026-05-08 00:52 52.82874 -1.33721 295 ft 12 kts 180°
2026-05-08 00:52 52.82848 -1.33810 295 ft 12 kts 269°
2026-05-08 00:52 52.82847 -1.33926 295 ft 7 kts 250°
2026-05-08 00:52 52.82830 -1.33908 296 ft 0 kts 52°